YO7MGN Weather Reports


Display with metric or nautical units.
time (UTC)temp
F
wind
direction
speed
MPH
gust
MPH
rain 1hr
in
rain 24hr
in
rain mn
in
humidity
%
barometer
mb
20181121124653 37 5 0.0 1.0 0.01 0.10 0.05 93 1018.2
20181121123221 37 9 0.0 2.0 0.00 0.09 0.04 94 1018.2
20181121121625 37 9 0.0 1.0 0.00 0.09 0.04 94 1018.2
20181121120151 37 9 0.0 2.0 0.00 0.09 0.04 94 1018.2
20181121114630 37 9 0.0 1.0 0.00 0.09 0.04 93 1018.2
20181121113240 37 9 0.0 2.0 0.00 0.09 0.04 93 1018.2
20181121111638 37 29 0.0 0.0 0.00 0.09 0.04 93 1018.3
20181121110105 37 29 0.0 2.0 0.00 0.09 0.04 93 1018.2
20181121104628 37 20 0.0 1.0 0.00 0.10 0.04 93 1018.3
20181121103155 37 20 0.0 0.0 0.00 0.10 0.04 93 1018.2
20181121101612 37 20 0.0 2.0 0.00 0.10 0.04 93 1018.3
20181121100121 37 76 0.0 1.0 0.00 0.10 0.04 93 1018.3
20181121094634 37 43 0.0 0.0 0.00 0.11 0.04 93 1018.4
20181121093047 37 40 0.0 0.0 0.00 0.11 0.04 93 1018.5
20181121091636 36 40 0.0 1.0 0.00 0.11 0.04 93 1018.6
20181121090123 36 5 0.0 2.0 0.01 0.11 0.04 94 1018.7
20181121084543 36 28 0.0 1.0 0.02 0.11 0.04 94 1018.5
20181121083136 36 24 0.0 1.0 0.02 0.11 0.04 93 1018.5
20181121081557 36 360 0.0 3.0 0.02 0.11 0.04 93 1018.5
20181121080039 36 33 0.0 3.0 0.01 0.10 0.03 93 1018.5
20181121074608 36 30 0.0 1.0 0.00 0.09 0.02 93 1018.4
20181121073048 35 28 0.0 2.0 0.00 0.09 0.02 93 1018.4
20181121071546 35 142 0.0 0.0 0.00 0.09 0.02 93 1018.3
20181121070107 35 142 0.0 2.0 0.00 0.09 0.02 93 1018.3
20181121054556 35 30 0.0 2.0 0.00 0.09 0.02 92 1018.0
20181121053026 35 360 0.0 1.0 0.00 0.09 0.02 92 1017.9
20181121051529 35 76 0.0 3.0 0.00 0.09 0.02 91 1017.4
20181121050020 35 63 0.0 2.0 0.00 0.09 0.02 91 1017.7
20181121044519 35 124 0.0 1.0 0.00 0.09 0.02 92 1017.7
20181121043022 35 131 0.0 1.0 0.00 0.09 0.02 91 1017.8
20181121041537 35 132 0.0 0.0 0.00 0.09 0.02 91 1018.0
20181121040020 35 17 0.0 3.0 0.00 0.09 0.02 91 1017.9
20181121034514 35 124 0.0 1.0 0.00 0.09 0.02 91 1018.2
20181121033102 35 90 0.0 1.0 0.00 0.09 0.02 91 1018.2
20181121031513 35 24 0.0 3.0 0.00 0.09 0.02 91 1018.2
20181121030018 35 115 0.0 4.0 0.00 0.09 0.02 91 1018.3
20181121024510 35 5 0.0 4.0 0.00 0.09 0.02 91 1018.4
20181121023021 35 22 0.0 3.0 0.00 0.09 0.02 92 1018.4
20181121021515 35 109 0.0 2.0 0.00 0.09 0.02 92 1018.4
20181121020011 35 115 0.0 2.0 0.00 0.09 0.02 92 1018.4
20181121014507 35 34 0.0 4.0 0.00 0.09 0.02 92 1018.7
20181121013010 35 122 0.0 5.0 0.00 0.09 0.02 92 1018.9
20181121010116 35 17 0.0 2.0 0.00 0.09 0.02 92 1019.2
20181121004735 35 24 0.0 3.0 0.01 0.09 0.02 92 1019.1
20181121003207 35 14 0.0 3.0 0.01 0.09 0.02 93 1019.2
20181121001641 35 107 0.0 3.0 0.01 0.09 0.02 93 1019.3
20181121000144 35 17 0.0 3.0 0.02 0.09 0.02 93 1019.5
20181120234743 35 29 0.0 3.0 0.01 0.09 0.02 93 1019.3
20181120233219 35 360 0.0 3.0 0.02 0.09 0.02 93 1019.2
20181120231644 35 140 0.0 5.0 0.02 0.09 0.02 92 1019.5
20181120230151 35 36 0.0 3.0 0.01 0.08 0.01 92 1019.7
20181120224621 35 78 0.0 1.0 0.01 0.08 0.01 92 1019.8
20181120223215 35 34 0.0 4.0 0.01 0.07 0.00 92 1019.9
20181120221626 35 40 0.0 4.0 0.01 0.07 0.00 92 1020.0
20181120220159 35 92 0.0 2.0 0.02 0.07 0.00 93 1020.0
20181120214619 35 111 0.0 2.0 0.02 0.07 0.07 92 1020.1
20181120213115 35 37 0.0 3.0 0.01 0.06 0.06 93 1020.3
20181120211631 35 32 0.0 3.0 0.02 0.06 0.06 93 1020.5
20181120210204 35 11 0.0 2.0 0.01 0.06 0.06 93 1020.4
20181120204716 35 13 0.0 4.0 0.02 0.06 0.06 92 1020.4
20181120203106 35 146 0.0 3.0 0.02 0.06 0.06 92 1020.4
20181120201602 35 70 0.0 5.0 0.02 0.05 0.05 92 1020.4
20181120200101 35 350 1.0 6.0 0.01 0.04 0.04 92 1020.4
20181120194654 36 9 0.0 4.0 0.01 0.04 0.04 93 1020.4
20181120193109 36 11 0.0 5.0 0.01 0.04 0.04 93 1020.5
20181120191601 36 25 0.0 2.0 0.01 0.03 0.03 93 1020.4
20181120190051 36 27 0.0 2.0 0.01 0.03 0.03 93 1020.4
20181120184555 36 355 0.0 2.0 0.01 0.03 0.03 93 1020.6
20181120183042 36 23 0.0 2.0 0.01 0.03 0.03 93 1020.6
20181120181556 36 355 0.0 2.0 0.00 0.02 0.02 93 1020.6
20181120180116 36 32 0.0 3.0 0.00 0.02 0.02 93 1020.7
20181120174553 36 92 0.0 2.0 0.00 0.02 0.02 93 1020.6
20181120173107 36 360 0.0 4.0 0.00 0.02 0.02 93 1020.7
20181120171603 36 360 0.0 1.0 0.00 0.02 0.02 93 1020.7
20181120170050 36 107 0.0 1.0 0.00 0.02 0.02 93 1020.5
20181120164629 36 132 0.0 1.0 0.00 0.02 0.02 93 1020.6
20181120163040 36 110 0.0 1.0 0.00 0.02 0.02 93 1020.6
20181120161606 35 104 0.0 1.0 0.00 0.02 0.02 92 1020.6
20181120160032 35 360 0.0 0.0 0.00 0.02 0.02 92 1020.6
20181120154549 35 18 0.0 1.0 0.00 0.02 0.02 92 1020.7
20181120153110 35 338 0.0 2.0 0.00 0.02 0.02 92 1020.6
20181120151547 35 348 0.0 1.0 0.00 0.02 0.02 92 1020.8
20181120150036 35 350 0.0 4.0 0.00 0.02 0.02 92 1020.8
20181120144531 35 61 0.0 1.0 0.00 0.02 0.02 92 1020.9
20181120143034 35 42 0.0 1.0 0.00 0.02 0.02 92 1020.9
20181120141615 35 348 0.0 0.0 0.00 0.02 0.02 92 1021.1
20181120140044 35 44 0.0 1.0 0.01 0.02 0.02 92 1021.2
20181120134543 35 5 0.0 1.0 0.01 0.02 0.02 92 1021.4
20181120133028 35 344 0.0 2.0 0.01 0.02 0.02 92 1021.3
20181120131605 35 326 0.0 2.0 0.01 0.02 0.02 92 1021.4
20181120130042 35 59 0.0 3.0 0.00 0.02 0.02 91 1021.5